Location: Ahstedt
(52.2048°N, 10.1060°E)
Time: 00:20:18
(UTC+00:00)

Cosmos 2297 Rocket - Pass Details

Date: 18 January 2026
Orbit: 838 x 843 km, 71.0° (Epoch: 17 February)

Event Time Altitude Azimuth Distance (km) Brightness Sun altitude
Exits shadow 06:13:27 - 332° (NNW) 3,071 4.7 -9.7°
Reaches altitude 10° 06:15:25 10° 343° (NNW) 2,476 4.3 -9.4°
Maximum altitude 06:19:50 23° 34° (NE) 1,750 4.0 -8.8°
Drops below altitude 10° 06:24:13 10° 85° (E) 2,467 5.7 -8.2°
Sets 06:27:12 0° 101° (E) 3,399 7.3 -7.8°
